STARLINK-11318 [DTC] (61252 NORAD) Tracking and Keplerian Element Data

This shows tracking and keplerian element data for the satellite.

Feedback or suggestion? Click here.




ElementValue
Catalog61252
NameSTARLINK-11318 [DTC]
Epoch Orbit371
Epoch Day286.91668981
Epoch Year2024
RAAN65.0534
Inclination53.1631
Eccentricity0.0001077
Argument of Perigee108.3645
Mean Anonmoly344.6697
Mean Motion15.79222654
Decay Rate0.00010622
L11 61252U 24175K 24286.91668981 .00010622 00000+0 61679-4 0 9998
L22 61252 53.1631 65.0534 0001077 108.3645 344.6697 15.79222654 3715



Live tracking and technical data element details for STARLINK-11318 [DTC] (NORAD 61252). STARLINK-11318 [DTC] can be tracked NOW for your location showing map with azimuth and elevation plus other details from your city location.







IsCatalogInMostPopularTable: catalog: 61252, numindb: 23
Update: records affected: 1



GetName: 61252 STARLINK-11318 [DTC]

Hit Count: updated at: Wed, 04 Dec 2024 09:08:50 GMT